Location: Asheville, NC
(35.6000°N, 82.5500°W)
Time: 13:12:11
(UTC-05:00)

Vanguard 1 - Pass Details

Date: 10 February 2018
Orbit: 650 x 3833 km, 34.2° (Epoch: 21 February)

Event Time Altitude Azimuth Distance (km) Brightness Sun altitude
Rises 15:11:27 0° 205° (SSW) 5,748 15.1 29.3°
Reaches altitude 10° 15:17:45 10° 187° (S) 4,013 14.1 28.4°
Maximum altitude 15:22:53 15° 155° (SSE) 2,998 12.9 27.7°
Drops below altitude 10° 15:26:51 10° 121° (ESE) 2,939 12.5 27.1°
Sets 15:30:17 0° 98° (E) 3,524 12.6 26.6°
